Location: Vancouver
(49.2500°N, 123.1330°W)
Time: 06:06:25
(UTC-07:00)

Iridium 35 - Visible Passes

Search period start: 03 August 2015 00:00
Search period end: 13 August 2015 00:00
Orbit: 776 x 779 km, 86.4° (Epoch: 02 August)

Date Brightness Start Highest point End Pass type
(mag) Time Alt. Az. Time Alt. Az. Time Alt. Az.
04 Aug 7.9 22:25:06 10° WSW 22:28:16 16° WNW 22:31:15 10° NNW visible
05 Aug 7.4 21:49:58 10° SW 21:54:18 25° WNW 21:58:34 10° NNW visible
06 Aug 6.5 21:15:33 10° SSW 21:20:30 42° WNW 21:25:26 10° N visible
07 Aug 8.3 22:27:00 10° W 22:28:44 11° WNW 22:30:10 10° NW visible
08 Aug 7.9 21:50:56 10° WSW 21:54:40 19° WNW 21:58:15 10° NNW visible
09 Aug 7.2 21:16:08 10° SW 21:20:46 31° WNW 21:25:21 10° NNW visible
11 Aug 8.1 21:52:17 10° W 21:55:04 14° WNW 21:57:38 10° NW visible
12 Aug 7.8 21:16:55 10° SW 21:21:04 23° WNW 21:25:08 10° NNW visible
